DIAMANT B-P4 DEB, 7655

Orbit data source: Space-Track

DIAMANT B-P4 DEB, 7655 is space debris in LEO originally from a launch on Thu, 06 Feb 1975 UTC launched from the French Guiana (FRGUI). Debris objects in space refer to the collection of defunct objects orbiting the Earth. Examples of debris include non-operational satellites, rocket bodies, and fragments generated from explosions, collisions, or faulty payload assembly.

Loading next visibility...
Identifier
7655, 1975-010D
Orbit
LEO
Country
Flag of FRFR
Related business
Manufacturer
Unknown
Mission
Spacecraft
Bus & Motor
Unknown
Mass
Unknown
Launch date (UTC)
1975-02-06 (51 years ago)
Launch vehicle
Unknown
Launch site
French Guiana (FRGUI)
Object type
Payload
Rocket body
Debris
Shape & HBR
Unknown shape, 0.1 m
Radar Cross Section
Small (<0.1 m²)

Expand to show TLE details & history
Last TLE update: 9 hours ago

TLE from 9 hours ago
0 DIAMANT B-P4 DEB
1  7655U 75010D   26128.10493440  .00000153  00000-0  19619-3 0  9998
2  7655  49.8032  26.8286 0178665  87.7957 274.3387 13.94864319602706
Epoch: 2026-05-08T02:31Z
TLE epoch observation values (Epoch: 2026-05-08T02:31:06.332Z)
Latitude
0.00002°
Longitude
123.11073°
Altitude
904.601 km
Speed
7.405 km/s
True Right ascension
01h 47m 18s
True Declination
0° 00' 00"
Sunlit
Object was in daylight at epoch
Visualization orbit readout
Latitude
Unknown
Longitude
Unknown
Altitude
Unknown
Speed
Unknown
Apparent Right ascension
Unknown
Apparent Declination
Unknown
Sunlit
N/A
Visualization observer readout
Local Sidereal Time
19:45:22
Azimuth
Unknown
Elevation
Unknown
Doppler factor
Unknown
Orbital elements
Apogee altitude
1,042.649 km
Perigee altitude
782.137 km
Semi-major axis
7,290.53 km
Eccentricity
0.01787
Inclination
49.8032°
RAAN
26.8286°
Arg. of periapsis
87.7957°
True anomaly
272.2942°
Mean anomaly
274.3387°
Eccentric anomaly
273.31674°
Mean motion
3.48662 °/min
Orbital period
103.25 mins
BSTAR
0.00019619
Loading maneuver chart data...
Computing Atmospheric mass density...
Loading historical data...
Loading historical data...
Loading historical data...
Loading historical data...
Loading historical data...
Loading historical data...
Loading historical data...
Other satellites on launch #10 in the year 1975 (1975-02-06 UTC)

Documentation

Showing up to 5 results
|